Location: Boulder, CO
(40.0083°N, 105.2472°W)
Time: 00:55:23
(UTC-07:00)

SORCE - Visible Passes

Search period start: 18 January 2017 00:00
Search period end: 28 January 2017 00:00
Orbit: 586 x 619 km, 40.0° (Epoch: 18 January)

Date Brightness Start Highest point End Pass type
(mag) Time Alt. Az. Time Alt. Az. Time Alt. Az.
18 Jan 9.2 03:54:07 12° E 03:54:07 12° E 03:54:23 10° E visible
18 Jan 6.5 05:30:49 40° SW 05:31:34 44° SSW 05:35:54 10° SE visible
19 Jan 8.9 04:04:43 14° ESE 04:04:43 14° ESE 04:05:26 10° ESE visible
19 Jan 7.1 05:41:26 27° SW 05:42:27 30° SSW 05:46:25 10° SSE visible
20 Jan 8.6 04:15:23 16° ESE 04:15:23 16° ESE 04:16:22 10° ESE visible
20 Jan 7.7 05:52:05 17° SW 05:53:16 19° SW 05:56:28 10° S visible
21 Jan 8.5 04:26:05 16° SE 04:26:05 16° SE 04:27:06 10° SE visible
21 Jan 8.3 06:02:49 10° SW 06:03:59 11° SW 06:05:16 10° SSW visible
22 Jan 8.6 04:36:52 13° SSE 04:36:52 13° SSE 04:37:33 10° SSE visible
27 Jan 8.3 19:26:23 10° SSW 19:27:28 14° S 19:27:28 14° S visible
